875  
ASUS41 KAKQ 190615  
RWRAKQ  
 
REGIONAL WEATHER ROUNDUP  
NATIONAL WEATHER SERVICE WAKEFIELD VA  
200 AM EDT TUE JUN 19 2018  
 
NOTE: "FAIR" INDICATES FEW OR NO CLOUDS BELOW 12,000 FEET WITH NO  
SIGNIFICANT WEATHER AND/OR S TO VISIBILITY
. * = DENOTES  
STATION MAY NOT REPORT PRECIPITATION (E.G., RAIN,SNOW,ETC.),
 
THUNDER OR FOG.  
 
VAZ042-051-052>054-056-190700-  
NORTHERN VIRGINIA  
 
CITY SKY/WX TMP DP RH WIND PRES REMARKS
 
WASH NATIONAL MOCLDY 81 71 71 S8 29.87F  
DULLES MOCLDY 76 72 87 S5 29.88F  
FORT BELVOIR FAIR 73 71 93 CALM 29.87F  
QUANTICO FAIR 80 73 79 VRB3 29.89F  
FREDERICKSBRG* FAIR 76 72 88 CALM 29.88F  
STAFFORD* FAIR 74 73 99 CALM 29.93F  
WARRENTON FAIR 75 69 82 CALM 29.89F  
CULPEPER* FAIR 72 70 94 CALM 29.91F  
MANASSAS* FAIR 72 71 97 S5 29.89F  
LEESBURG* FAIR 79 73 83 SW5 29.89F  
WINCHESTER FAIR 77 66 69 SW6 29.92F  
FRONT ROYAL* FAIR 73 72 94 S6 29.91F  
LURAY* FAIR 75 72 88 S6 29.94F  

 
 
VAZ048-049-060>072-079>083-190700-  
CENTRAL AND SOUTH CENTRAL VIRGINIA  
 
CITY SKY/WX TMP DP RH WIND PRES REMARKS
 
RICHMOND FAIR 80 72 76 SW6 29.90F  
CHESTERFIELD* FAIR 79 73 82 W3 29.91F  
PETERSBURG* FAIR 72 69 90 CALM 29.92F  
HANOVER FAIR 81 73 76 SW5 29.92S  
TAPPAHANNOCK* FAIR 77 74 91 S3 29.90F  
QUINTON* FAIR 75 75 100 CALM 29.90S  
CHARLOTTSVILLE FAIR 79 72 79 SW5 29.92F  
GORDONSVILLE* FAIR 71 71 100 CALM 29.91F  
ORANGE* FAIR 70 70 100 SW5 29.91F  
LOUISA* FAIR 72 70 94 W5 29.96F  
BUMPASS* FAIR 72 70 95 CALM 29.91F  
FARMVILLE* FAIR 75 73 93 CALM 29.92F  
CREWE* FAIR 78 78 100 CALM 29.92F  
FORT PICKETT* N/A N/A N/A N/A MISG N/A  
CHASE CITY* FAIR 76 76 100 CALM 29.95F  
CLARKSVILLE* FAIR 77 77 100 SW5 29.94F  
SOUTH HILL* FAIR 74 74 99 SW3 30.00F  
LAWRENCEVILLE* N/A 74 73 96 CALM 29.93F  
EMPORIA* FAIR 75 72 88 CALM 29.94S  

 
 
VAZ088>098-190700-  
SOUTHEAST VIRGINIA  
 
CITY SKY/WX TMP DP RH WIND PRES REMARKS
 
NORFOLK FAIR 79 78 97 SW9 29.90F  
VIRGINIA BEACH FAIR 77 72 84 SW6 29.89F  
NORFOLK NAVAL FAIR 79 74 84 SW7 29.91F  
WEST POINT* FAIR 78 74 90 CALM 29.90F  
SALUDA* FAIR 78 77 98 SW5 29.88F  
NEWPORT NEWS FAIR 78 74 87 SW8 29.90F  
LANGLEY AFB NOT AVBL  
FORT EUSTIS FAIR 79 75 86 SE6 29.88F  
WILLIAMSBURG* FAIR 81 73 78 CALM 29.91F  
HR EXEC AP* FAIR 74 74 100 SW3 29.92F  
FRANKLIN* FAIR N/A N/A N/A CALM 29.92S  
US460-WAKEFLD FAIR 76 72 87 SW3 29.91F FOG  

 
 
VAZ020-022-025-037-045-190700-  
WEST CENTRAL AND SOUTHWEST VIRGINIA  
 
CITY SKY/WX TMP DP RH WIND PRES REMARKS
 
STAUNTON* FAIR 70 68 94 CALM 29.99F  
WAYNESBORO* FAIR 77 67 70 W5 30.00F  
HOT SPRINGS VA FAIR 72 69 90 W14G21 30.15F  
LYNCHBURG FAIR 75 70 84 CALM 29.98S  
DANVILLE FAIR 72 72 100 SW5 29.97F  
SOUTH BOSTON* FAIR 76 73 92 CALM 29.95F  
MARTINSVILLE FAIR 68 68 99 CALM 30.03S  
ROANOKE FAIR 77 67 71 W7 30.03F  
BLACKSBURG FAIR 72 68 87 CALM 30.13S  
DUBLIN* FAIR 76 67 74 W5 30.12S  
MARION* MOCLDY 69 69 99 CALM 30.17S  
HILLSVILLE* FAIR 72 67 83 W6 30.13S  
RICHLANDS* FAIR 73 69 87 W3 30.17S  
WISE* FAIR 72 72 100 W5 30.18S  
ABINGDON* MOCLDY 74 72 94 CALM 30.14R  

 
 
MDZ021>025-VAZ099-100-190700-  
SOUTHERN MARYLAND AND THE DELMARVA PENINSULA  
 
CITY SKY/WX TMP DP RH WIND PRES REMARKS
 
PATUXENT RIVER FAIR 82 74 76 SW10 29.87S  
BAY BRIDGE APT FAIR 81 73 78 SW6 29.85F  
LEONARDTOWN FAIR 77 73 88 SW3 29.90S  
DOVER FAIR 79 73 81 SW10 29.83F  
GEORGETOWN FAIR 78 72 81 SW7 29.86F  
EASTON FAIR 81 74 81 SW3 29.90F  
CAMBRIDGE CLEAR 79 75 89 CALM 29.87S  
SALISBURY FAIR 76 74 93 SW6 29.87F  
TANGIER FAIR 81 81 100 S9 29.88S  
OCEAN CITY FAIR 76 69 79 W12 29.87F  
WALLOPS ISLAND FAIR 78 74 87 SW7 29.88F  
ACCOMACK* FAIR 77 75 93 SW6 29.89F  

 
 
NCZ012>017-030>032-190700-  
NORTH CENTRAL AND EASTERN NORTH CAROLINA  
 
CITY SKY/WX TMP DP RH WIND PRES REMARKS
 
ROANOKE RAPIDS FAIR 75 73 94 CALM 29.93F  
RALEIGH FAIR 76 73 91 SW7 29.97F  
ELIZABETH CITY FAIR 77 77 100 SW6 29.91F  
AHOSKIE* FAIR 73 73 100 MISG 29.93S  
EDENTON* FAIR 81 78 90 W6 29.93F  
CURRITUCK* FAIR 67 66 96 MISG 29.92F FOG  
KILL DEVIL HLS N/A 77 75 93 CALM 29.91F  
MANTEO FAIR 77 75 93 W6 29.92F  
CAPE HATTERAS FAIR 79 78 97 W8 29.94S  
TARBORO* NOT AVBL  
GOLDSBORO FAIR 76 71 83 SW6 29.95F  
WASHINGTON FAIR 77 73 86 CALM 29.94F  
GREENVILLE FAIR 79 72 78 W5 29.96F  
NEW BERN FAIR 73 71 93 SW5 29.97F  
WILMINGTON FAIR 78 74 87 W10 29.98F  

 
 
VAZ048-190700-  
ELSEWHERE  
 
CITY SKY/WX TMP DP RH WIND PRES REMARKS
 
HARRISBURG PA LGT RAIN 83 70 64 NW10 29.85R  
BALTIMORE FAIR 81 72 74 SW5 29.84F  
ANNAPOLIS FAIR 83 73 72 SW5 29.84F  
ANDREWS AFB FAIR 78 70 76 SW7 29.87F  
PHILADELPHIA MOCLDY 80 72 76 SW12 29.80F  
HENDERSON NC FAIR 73 70 91 SW5 29.96F  
GREENSBORO FAIR 77 71 82 NW6 30.00S  
ROCKY MOUNT FAIR 76 72 87 SW5 29.95F  

 
 
VAZ100-190700-  
MARINE  
 
STATION/POSITION TIME TEMP WIND PRES WAVE SWELL
 
AIR SEA DIR/SP/G HT/PER HT/PER  
(UTC) (F) (DEG/KT/KT) (MB) (FT/S) (FT/S)  
BRANDYWINE LGT 0536 78 250/ 20/ 20 1010.7F  
CAPE MAY NJ 0542 74 72 240/ 10/ 11 1010.0F  
LEWES DE 0536 79 70 250/ 9/ 15 1010.8F  
15NM E FENWICK I 0550 72 69 220/ 16/ 19 1011.1F 3/ 6 2/ 6  
OCEAN-CITY-INLET 0536 76 70 260/ 9/ 11 1011.8F  
WACHAPREAGUE VA 0536 79 82 180/ 4/ 8 1012.0F  
THOMAS POINT MD 0600 79 75 240/ 6/ 6 1011.7F  
GOOSES REEF MD 0600 79 77 270/ 6/ 6 1011.8 1  
COVE POINT MD 0536 82 270/ 12/ 18 1012.2S  
SOLOMONS ISLAND 0536 80 76 240/ 9/ 11 1011.5R  
BISHOPS HEAD MD 0536 80 85 220/ 12/ 14 1012.2S  
PINEY POINT MD 0536 320/ 4/ 4 N/A  
CAMBRIDGE MD 0536 79 79 1012.6S  
LEWISETTA VA 0536 81 82 250/ 8/ 10 1011.9F  
RAPPAHANNOCK LGT 0536 200/ 13/ 15 1012.8F  
STINGRAY PT 0600 80 80 250/ 10/ 10 1012.4 1/ 2  
YORK RVR RNG VA 0536 80 230/ 8/ 9 1012.9F  
DOMINION TERM VA 0536 80 220/ 8/ 10 1012.8F  
KIPTOPEKE VA 0536 78 190/ 5/ 5 N/A  
CAPE HENRY VA 0536 79 210/ 7/ 10 1010.9F  
WILLOUBY STN VA 0536 80 210/ 9/ 10 1011.7F  
S CRANEY ISL VA 0536 80 210/ 6/ 7 1012.6F  
CAPE HENRY BUOY 0600 78 N/A 2/ 5  
1ST LANDING BUOY 0600 79 78 220/ 8/ 8 1012.1 1/ 5  
64NM E OF VA BCH 0550 73 73 190/ 4/ 4 1013.3F 2/ 6 2/ 6  
DUCK PIER NC 0536 80 72 240/ 8/ 11 1012.8F  
44100 DUCK FRF 0515 79 N/A 1/ 8  
44056 DUCK FRF 0600 77 N/A 1/ 8  
OREGON INLET NC 0536 79 83 250/ 8/ 12 1013.3F  
HATTERAS NC 0536 79 82 250/ 9/ 12 1013.4F  
DIAMOND SHLS NC 0600 80 78 240/ 16/ 19 1013.9  
CAPE LOOKOUT NC 0600 250/ 11/ 14 1014.8F  

 
 
 
CLICK HERE TO GO TO PREVIOUS BULLETINS.

The Nexlab VA Page
The Nexlab NC Page
The Nexlab MD Page Main Text Page